DTUSAT 1 27842U 03031C 12039.61222910 .00000152 00000-0 90002-4 0 3265 2 27842 98.6961 50.4110 0008684 211.1869 148.8794 14.21237667446609 CUTE-1 (CO-55) 1 27844U 03031E 12039.08008200 .00000181 00000-0 10384-3 0 3055 2 27844 98.7045 49.3461 0008982 237.5232 122.5082 14.20958094446419 QUAKESAT 1 27845U 03031F 12039.54245080 .00000253 00000-0 13779-3 0 3316 2 27845 98.7147 49.5559 0008204 258.3985 101.6267 14.20669572446352 AAU CUBESAT 1 27846U 03031G 12039.54229319 .00000175 00000-0 10039-3 0 2053 2 27846 98.6959 50.3304 0008500 211.0194 149.0481 14.21236824446599 CANX-1 1 27847U 03031H 12039.56631643 .00000129 00000-0 79509-4 0 2207 2 27847 98.6961 50.3312 0008446 212.6317 147.4340 14.21207922446543 CUBESAT XI-IV (CO-57) 1 27848U 03031J 12038.63881307 .00000155 00000-0 92011-4 0 2537 2 27848 98.7140 48.1902 0008688 242.5146 117.5161 14.20718273446290 UWE-1 1 28892U 05043C 12039.18005013 .00000444 00000-0 10059-3 0 1446 2 28892 97.9349 269.9214 0016608 196.6954 163.3694 14.60451610334792 CUBESAT XI-V (CO-58) 1 28895U 05043F 12039.12353404 .00000441 00000-0 99929-4 0 937 2 28895 97.9354 270.9773 0017248 197.1498 162.9104 14.60474595334678 NCUBE-2 1 28897U 05043H 12039.19113371 .00000570 00000-0 12599-3 0 6670 2 28897 97.9347 270.9393 0016103 196.7344 163.3321 14.60699812326997 CSTB1 1 31122U 07012F 12038.80230927 .00000566 00000-0 13192-3 0 4388 2 31122 97.8804 62.9637 0085384 141.7928 218.9327 14.56124532255625 MAST 1 31126U 07012K 12039.51199919 .00000437 00000-0 10774-3 0 3789 2 31126 97.8804 58.1784 0094376 154.2403 206.3542 14.54027713255426 LIBERTAD-1 1 31128U 07012M 12039.32573517 -.00000045 00000-0 00000+0 0 4458 2 31128 97.8886 54.4000 0102297 167.1819 193.2040 14.52706450255128 POLYSAT CP3 1 31129U 07012N 12039.47884411 .00000466 00000-0 11615-3 0 880 2 31129 97.8861 54.8881 0101451 165.9673 194.4384 14.52880840255140 CAPE1 1 31130U 07012P 12039.57492601 .00000377 00000-0 96151-4 0 3905 2 31130 97.8897 54.7142 0102120 166.2031 194.1991 14.52761432254950 POLYSAT CP4 1 31132U 07012Q 12039.49698861 .00000404 00000-0 97509-4 0 3981 2 31132 97.8725 63.0080 0085209 139.7541 221.0042 14.55842383255580 NTS (CANX-6) 1 32784U 08021B 12039.30840618 .00000358 00000-0 51508-4 0 2251 2 32784 97.8185 102.5259 0016697 121.6533 238.6283 14.82065565204457 CUTE-1.7+APD II (CO-65) 1 32785U 08021C 12039.34546802 .00001201 00000-0 15511-3 0 2233 2 32785 97.8180 103.3929 0015592 123.4912 236.7782 14.82670514204527 COMPASS-1 1 32787U 08021E 12039.31773436 .00001059 00000-0 13495-3 0 2170 2 32787 97.8175 103.4741 0016463 123.6233 236.6578 14.83485627204557 AAUSAT-II 1 32788U 08021F 12039.44850468 .00001205 00000-0 15162-3 0 2093 2 32788 97.8216 103.9183 0016183 122.9584 237.3170 14.83763705204595 DELFI-C3 (DO-64) 1 32789U 08021G 12039.61034937 .00002788 00000-0 33321-3 0 2249 2 32789 97.8307 105.6501 0016037 121.2260 239.0543 14.84902292204647 CANX-2 1 32790U 08021H 12039.10327057 .00000834 00000-0 10998-3 0 2170 2 32790 97.8155 102.8947 0016133 124.8598 235.4132 14.82580909204462 SEEDS II (CO-66) 1 32791U 08021J 12039.39531033 .00001032 00000-0 13319-3 0 2118 2 32791 97.8196 103.3850 0016674 121.8038 238.4799 14.82995241204509 SWISSCUBE 1 35932U 09051B 12039.73215779 .00005302 00000-0 12986-2 0 4019 2 35932 98.3305 143.3390 0009029 145.0994 215.0602 14.52847347126063 BEESAT 1 35933U 09051C 12039.75354836 .00007908 00000-0 19109-2 0 5671 2 35933 98.3267 143.7295 0004884 147.6174 212.4940 14.53351327126112 UWE-2 1 35934U 09051D 12039.74463047 .00003343 00000-0 81574-3 0 1587 2 35934 98.3267 143.4145 0007562 156.3736 203.7628 14.53281412126114 ITUPSAT 1 1 35935U 09051E 12039.26571357 .00001956 00000-0 48744-3 0 8137 2 35935 98.3379 143.3831 0010184 143.1496 217.0238 14.52722758125982 TISAT 1 1 36799U 10035E 12039.68340714 .00001359 00000-0 18016-3 0 6793 2 36799 98.0747 115.0572 0014030 229.5145 130.4853 14.81495454 85314 DICE-F 1 37851U 11061B 12039.00410361 .00005931 00000-0 48266-3 0 946 2 37851 101.7177 20.0924 0252265 1.4874 358.7014 14.78606805 15147 DICE-Y 1 37852U 11061C 12039.06733946 .00006641 00000-0 53795-3 0 920 2 37852 101.7181 20.1984 0251897 1.2441 358.9328 14.78730399 15155 RAX-2 1 37853U 11061D 12038.92915405 .00006122 00000-0 49758-3 0 925 2 37853 101.7122 19.9377 0251381 1.8448 358.3619 14.78751811 15142 AUBIESAT-1 1 37854U 11061E 12038.91374361 .00007270 00000-0 58100-3 0 932 2 37854 101.7138 20.0041 0252499 1.4540 358.7328 14.79035696 15127 M-CUBED & EXP-1 PRIME 1 37855U 11061F 12039.52587726 .00006593 00000-0 52760-3 0 935 2 37855 101.7176 20.8899 0253192 359.7641 0.3399 14.78959276 15217